LEMGLXGB

Guest
Details From LEMG - Malaga
To LXGB - Gibraltar
Flight Number -
Tags generated
Created
Modified
Stats Distance 59 nm / 110 km
Max Altitude 4,700 ft / 1,433 m
Waypoints 3
Social Downloads 2
Likes 0
Share VATSIM

Download

Looking for another format? Having issues loading an existing format? Contact us
Advertisement - Login to hide

Notes

Basic altitude profile: - Ascent Rate: 2500ft/min - Ascent Speed: 250kts - Cruise Altitude: 4000ft - Cruise Speed: 420kts - Descent Rate: 1500ft/min - Descent Speed: 250kts Options: - Use NATs: yes - Use PACOTS: yes - Use low airways: yes - Use high airways: no

Route

LEMG PIMOS LXGB

ID Type Via Altitude Latitude Longitude Leg Dist Tot Dist Heading (true) Name
O LEMG APT - 0 ft / 0 m 36.67978˚ -4.49590˚ - 0 nm - Malaga
PIMOS FIX - 4,700 ft / 1,433 m 36.15027˚ -4.89346˚ 37 nm 37 nm 211° / 211° -
O LXGB APT - 0 ft / 0 m 36.15121˚ -5.34966˚ 22 nm 59 nm 270° / 270° Gibraltar

Altitude Profile

Advertisement - Login to hide

LEMG

Details ICAO LEMG (AGP)
Name Malaga
Region Spain
Timezone Europe/Madrid (UTC+1.0)
Stats Elevation 52 ft / 16 m (AMSL)
Location 36.679780° -4.495899°
Runways 2
Magnetic Variation 0.877° W

METAR

LEMG 140500Z 28013KT CAVOK 12/01 Q1025 NOSIG

Decode

TAF

TAF LEMG 132300Z 1400/1424 31011KT CAVOK TX20/1414Z TN06/1407Z PROB30 TEMPO 1408/1421 30015G25KT

Decode

Departure Runways

ID Width Length Bearing (true) Bearing (mag) Surface Threshold Offset Overrun Length
12 148 ft / 45 m 10,057 ft / 3,065 m 117.76° 118.64° Asphalt 0 ft / 0 m 650 ft / 198 m
13 148 ft / 45 m 10,509 ft / 3,203 m 131.69° 132.57° Asphalt 0 ft / 0 m 246 ft / 75 m
30 148 ft / 45 m 10,057 ft / 3,065 m 297.78° 298.66° Asphalt 1,115 ft / 340 m 466 ft / 142 m
31 148 ft / 45 m 10,509 ft / 3,203 m 311.70° 312.58° Asphalt 0 ft / 0 m 246 ft / 75 m

LXGB

Details ICAO LXGB (GIB)
Name Gibraltar
Region Gibralter
Timezone Europe/Gibraltar (UTC+1.0)
Stats Elevation 15 ft / 5 m (AMSL)
Location 36.151209° -5.349664°
Runways 1
Magnetic Variation 1.123° W

METAR

LXGB 140450Z AUTO 24008KT 9999 // NCD 11/04 Q1025

Decode

TAF

Not found

Destination Runways

ID Width Length Bearing (true) Bearing (mag) Surface Threshold Offset Overrun Length
27 151 ft / 46 m 5,992 ft / 1,826 m 267.56° 268.68° Asphalt 367 ft / 112 m 89 ft / 27 m
9 151 ft / 46 m 5,992 ft / 1,826 m 87.54° 88.66° Asphalt 299 ft / 91 m 52 ft / 16 m

Popular Alternatives